Overview Statistics Trail Chart Weather Telemetry Raw packets
 

This is the latest recevied weather packets stored in our database for station/object KB4RFE. If no packets are shown the sender has not sent any weather packets the latest 10 day(s).

<< 90 91 92 93 94 95 96 >>
Time Temp. Humidity Pressure Rain* Wind** Luminosity Snow
1787959093 25.56° C 95% 1019.7 hPa 0.51 mm - 7 W/m² -
1787958788 25.56° C 95% 1019.5 hPa 0.51 mm - 11 W/m² -
1787958484 25.56° C 95% 1019.7 hPa 0.51 mm - 11 W/m² -
1787958179 25.56° C 95% 1019.7 hPa 0.51 mm - 11 W/m² -
1787957879 26.11° C 96% 1019.7 hPa 1.78 mm - 12 W/m² -
1787957572 26.11° C 96% 1019.7 hPa 1.27 mm - 12 W/m² -
1787957269 26.11° C 96% 1019.7 hPa 0.51 mm - 12 W/m² -
1787956968 26.11° C 96% 1019.6 hPa 0.51 mm - 9 W/m² -
1787956667 26.11° C 96% 1019.6 hPa 1.27 mm - 12 W/m² -
1787956363 26.11° C 96% 1019.8 hPa 1.27 mm - 15 W/m² -
1787956058 26.11° C 95% 1019.4 hPa 1.27 mm - 17 W/m² -
1787955753 26.11° C 95% 1019.6 hPa 1.27 mm - 20 W/m² -
1787955449 26.67° C 96% 1019.6 hPa 1.27 mm - 18 W/m² -
1787955147 26.67° C 96% 1019.6 hPa 0.51 mm - 24 W/m² -
1787954844 26.67° C 96% 1019.6 hPa 0 mm - 36 W/m² -
1787954540 26.67° C 96% 1019.8 hPa 0 mm - 40 W/m² -
1787954239 26.67° C 95% 1019.8 hPa 0 mm - 45 W/m² -
1787953933 26.67° C 95% 1019.6 hPa 0 mm - 48 W/m² -
1787953632 26.67° C 95% 1019.5 hPa 0 mm - 48 W/m² -
1787953332 26.67° C 95% 1019.7 hPa 0 mm - 47 W/m² -
1787953031 26.67° C 95% 1019.7 hPa 0 mm - 48 W/m² -
1787952730 26.67° C 95% 1019.6 hPa 0 mm - 52 W/m² -
1787952425 26.67° C 95% 1019.5 hPa 0 mm - 64 W/m² -
1787952121 26.67° C 95% 1019.6 hPa 0.51 mm - 73 W/m² -
1787951820 26.67° C 95% 1019.7 hPa 0.51 mm - 73 W/m² -

* Rain latest hour (hover to see other rain measurements)
** Current wind speed in m/s (hover to see current wind gust speed)